Regional Weather Roundup
Issued by NWS

Home | Current Version | Previous Version | Text Only | Print | Product List | Glossary On
Versions: 1 2 3 4 5 6 7 8 9 10 11 12 13 14 15 16 17 18 19 20 21 22 23 24 25 26 27 28 29 30 31 32 33 34 35 36 37 38 39 40 41 42 43 44 45 46 47 48 49 50
000
ASUS43 KDTX 020201
RWRMI
MICHIGAN HOURLY REGIONAL WEATHER ROUNDUP
NATIONAL WEATHER SERVICE DETROIT/PONTIAC MI
1000 PM EDT FRI JUL 01 2016

NOTE: "FAIR" INDICATES FEW OR NO CLOUDS BELOW 12,000 FEET WITH NO
SIGNIFICANT WEATHER AND/OR OBSTRUCTION TO VISIBILITY.

MIZ047>049-052>055-059>063-066>070-074>076-081>083-020300-
SOUTHEAST LOWER MICHIGAN

CITY           SKY/WX    TMP DP  RH WIND       PRES   REMARKS
ADRIAN         CLEAR     65  49  56 N6        30.07R
ALMA           CLEAR     58  43  58 CALM      30.09S
ANN ARBOR      CLEAR     65  48  54 N8        30.07R
BAD AXE        MOCLDY    55  52  87 CALM      30.07R
CARO           PTCLDY    58  51  75 W3        30.07R
DETROIT CITY   CLEAR     68  47  46 N7        30.05R
DETROIT        PTCLDY    66  48  52 N7        30.06R
FLINT          CLEAR     64  47  53 NW7       30.08R
GROSSE ILE     CLEAR     68  48  48 N8        30.04R
HILLSDALE      CLEAR     62  47  58 NW7       30.09R
HOWELL         CLEAR     62  46  55 CALM      30.08R

CITY           SKY/WX    TMP DP  RH WIND       PRES   REMARKS
JACKSON        CLEAR     63  47  55 N6        30.09R
LAMBERTVILLE   CLEAR     68  50  51 N6        30.06R
LANSING        CLEAR     62  46  55 NW3       30.10R
LAPEER         FAIR      60  48  63 CALM      30.08R
MASON          CLEAR     61  47  59 NW5       30.09R
MONROE         CLEAR     65  51  61 N3        30.04R
MT. CLEMENS    PTCLDY    67  50  56 NW8       30.04R
PONTIAC        CLEAR     64  48  56 N8        30.06R
PORT HOPE        N/A     57  52  83 W5        30.03R
PORT HURON     PTCLDY    54  52  94 CALM      30.07R
TRI CITIES     CLEAR     62  45  53 NW8       30.08R
MIDLAND        FAIR      54  48  78 CALM      30.07S
TROY           CLEAR     67  47  49 NW6       30.07R
SAGINAW HB     PTCLDY    61  48  63 W6        30.08R
$$
MIZ043>046-050>051-056>058-064>065-071>073-077>080-020300-
SOUTHWEST LOWER MICHIGAN

CITY           SKY/WX    TMP DP  RH WIND       PRES   REMARKS
BATTLE CREEK   CLEAR     59  53  80 W6        30.11R
BENTON HARBOR  CLEAR     60  51  72 CALM      30.12R
BIG RAPIDS     CLEAR     58  47  67 W3        30.10R
COLDWATER      CLEAR     62  54  74 NW3       30.10R
FREMONT        FAIR      59  50  73 CALM      30.11R
HOLLAND        CLEAR     61  48  62 NW5       30.12R
GRAND RAPIDS   PTCLDY    64  46  52 NW7       30.11R
IONIA          FAIR      62  45  53 CALM      30.09R
KALAMAZOO      CLEAR     61  49  64 NW7       30.11R
LUDINGTON      CLEAR     57  50  78 CALM      30.11S
MARSHALL       PTCLDY    63  52  69 W6        30.09R
MUSKEGON       PTCLDY    56  47  71 NW5       30.11S
SOUTH HAVEN    CLEAR     59  47  64 N6        30.11S
$$
MIZ016>042-020300-
NORTHERN LOWER MICHIGAN

CITY           SKY/WX    TMP DP  RH WIND       PRES   REMARKS
ALPENA         CLEAR     59  46  62 CALM      30.04R
BEAVER ISLAND  CLEAR     55  51  86 CALM      30.06S
BELLAIRE       CLEAR     54  51  87 CALM      30.08R
CADILLAC       CLEAR     55  46  72 W5        30.10R
CHARLEVOIX     CLEAR     60  53  77 SW5       30.09S
FRANKFORT      CLEAR     57  54  87 CALM      30.10R
GAYLORD        CLEAR     60  45  57 W5        30.08R
GRAYLING       CLEAR     55  47  72 W3        30.09R
HARBOR SPRINGS CLEAR     59  54  83 W3        30.06S
HOUGHTON LAKE  CLEAR     57  44  62 NW3       30.09R
MANISTEE       CLEAR     57  51  80 W3        30.10R
OSCODA         CLEAR     60  45  57 W6        30.04R
PELLSTON       CLEAR     59  49  69 W5        30.06R
ROGERS CITY    CLEAR     59  45  58 CALM      30.05R
TRAVERSE CITY  PTCLDY    62  47  57 W3        30.07R
$$
MIZ007>008-015-020300-
EASTERN UPPER MICHIGAN

CITY           SKY/WX    TMP DP  RH WIND       PRES   REMARKS
KINROSS        CLEAR     56  49  77 N9        30.04R
MACKINAC ISLAN CLEAR     62  47  57 W7        30.04R
NEWBERRY       CLEAR     56  50  78 W5        30.04R
S. S. MARIE    CLEAR     56  47  71 W5        30.03R
MUNISING         N/A     58  51  78 CALM      30.05S
$$
MIZ004>006-011>014-085-020300-
CENTRAL UPPER MICHIGAN

CITY           SKY/WX    TMP DP  RH WIND       PRES   REMARKS
MANISTIQUE     CLEAR     58  48  69 CALM      30.06R
ESCANABA       CLEAR     61  46  59 W7        30.08R
MENOMINEE      PTCLDY    62  52  69 CALM      30.09R
SAWYER-GWINN   CLEAR     63  41  45 W6        30.09
$$
MIZ001>003-009>011-084-020300-
WESTERN UPPER MICHIGAN

CITY           SKY/WX    TMP DP  RH WIND       PRES   REMARKS
IRON MOUNTAIN  CLEAR     60  46  59 NW3       30.10R
HOUGHTON       CLEAR     60  41  49 W9        30.07S
COPPER HARBOR    N/A     65  41  41 NW9G17    30.03S
IRONWOOD       CLEAR     61  54  77 CALM      30.10R
$$

ABBREVIATIONS USED IN REMARKS
   TC - TEMPERATURE IN CELSIUS
  WCI - WIND CHILL INDEX
   HX - HEAT INDEX
  VSB - VISIBILITY




USA.gov is the U.S. government's official web portal to all federal, state and local government web resources and services.